Location: Clarion
(42.7316°N, 93.7330°W)
Time: 08:18:39
(UTC+00:00)

ATLAS 3B R/B - Pass Details

Date: 22 April 2026
Orbit: 937 x 1257 km, 63.8° (Epoch: 16 May)

Event Time Altitude Azimuth Distance (km) Brightness Sun altitude
Rises 08:32:12 0° 314° (NW) 4,172 5.9 -26.5°
Reaches altitude 10° 08:35:42 10° 301° (WNW) 3,167 5.1 -26.1°
Enters shadow 08:38:08 17° 285° (WNW) 2,621 4.5 -25.8°
